[[{"header":{"parameterUnit":"m.s-1","parameterCategory":1,"la1":30.2991,"la2":30.254,"lo1":-89.0895,"lo2":-89.0444,"dy":0.0017,"dx":0.0017,"nx":28,"ny":28,"refTime":"2023-11-01T09:00:00:Z","depth":0,"parameterNumber":2,"parameterNumberName":"U-component_of_WINDS"},"data":[0,0,0,0,0,0,0,0,0,0,0,0,0,0,0,0,0,0,0,0,0,0,0,0,0,0,0,0,0,0,0,0,0,0,0,0,0,0,0,0,0,0,0,0,0,0,0,0,0,0,0,0,0,0,0,0,0,0,-5.569,-5.5692,0,-5.5813,-5.5815,-5.5816,-5.5639,-5.5633,-5.5627,-5.5621,-5.575,-5.5759,-5.5768,0,0,0,0,0,0,0,0,0,0,0,0,0,-5.5304,-5.5312,-5.569,-5.5692,-5.5693,-5.5813,-5.5815,-5.5816,-5.5641,-5.5633,-5.5625,-5.5618,-5.5747,-5.5758,-5.5769,0,0,0,0,0,0,0,0,0,0,0,0,0,-5.5454,-5.5315,-5.569,-5.562,-5.5615,-5.5813,-5.5815,-5.5817,-5.5642,-5.5633,-5.5623,-5.5615,-5.5743,-5.5757,-5.577,-5.6043,0,0,-5.5813,-5.5819,0,0,0,0,0,0,0,0,-5.5446,-5.5469,-5.5629,-5.5625,-5.562,-5.5701,-5.5726,-5.5893,-5.5645,-5.5632,-5.5621,-5.561,-5.5742,-5.5755,-5.5799,-5.6049,-5.6055,-5.5814,-5.5822,-5.5828,-5.5832,0,0,0,0,0,0,0,-5.5436,-5.5462,-5.5739,-5.5631,-5.5626,-5.5583,-5.5594,-5.5757,-5.5738,-5.5632,-5.562,-5.5637,-5.5737,-5.5786,-5.58,-5.6057,-5.5814,-5.5826,-5.5834,-5.584,-5.6537,-5.6547,0,0,0,0,0,0,-5.5434,-5.5455,-5.5735,-5.5742,-5.5508,-5.5597,-5.5609,-5.5685,-5.5735,-5.5734,-5.5644,-5.5628,-5.5767,-5.5784,-5.5804,-5.6127,-5.5828,-5.5841,-5.5849,-5.6527,-5.6539,-5.655,0,0,0,0,0,0,-5.5426,-5.546,-5.573,-5.5595,-5.5626,-5.5614,-5.57,-5.5692,-5.574,-5.5745,-5.5741,-5.5697,-5.576,-5.5785,-5.5985,-5.6129,-5.5847,-5.586,-5.6515,-5.6531,-5.6545,-5.6774,0,0,0,0,0,0,-5.5416,-5.5459,-5.5562,-5.5599,-5.5634,-5.5909,-5.5709,-5.5701,-5.5764,-5.5744,-5.5793,-5.5792,-5.5754,-5.5965,-5.5999,-5.6143,-5.5871,-5.6502,-5.6522,-5.654,-5.6754,-5.6796,-5.6831,0,0,0,0,0,-5.5402,-5.5622,-5.5568,-5.5603,-5.5763,-5.5917,-5.5938,-5.5889,-5.5777,-5.588,-5.5883,-5.5791,-5.6108,-5.5987,-5.6023,-5.6174,-5.6493,-5.6516,-5.6539,-5.6737,-5.6788,-5.683,0,0,0,0,0,0,-5.5604,-5.5626,-5.5566,-5.5804,-5.586,-5.5887,-5.6017,-5.5944,-5.6034,-5.6011,-5.5947,-5.596,-5.6174,-5.6194,-5.6059,-5.644,-5.6281,-5.6313,-5.642,-5.6468,-5.6506,-5.6497,-5.5882,0,0,0,0,0,-5.5676,-5.5798,-5.5811,-5.6021,-5.6052,-5.603,-5.6095,-5.6053,-5.6108,-5.6131,-5.6149,-5.6207,-5.6319,-5.6395,-5.6498,-5.6756,-5.6764,-5.6877,-5.6916,-5.6948,-5.6976,-5.7113,-5.7163,-5.6626,-5.6626,-5.6625,0,0,-5.5826,-5.5853,-5.5935,-5.6062,-5.61,-5.6229,-5.6051,-5.6195,-5.629,-5.6153,-5.6343,-5.6358,-5.6419,-5.6649,-5.6751,-5.6672,-5.7126,-5.6977,-5.7002,-5.7013,-5.7142,-5.7192,-5.7238,-5.6641,-5.6638,-5.6636,0,0,-5.6165,-5.6198,-5.6376,-5.6417,-5.6477,-5.6461,-5.6504,-5.6543,-5.6547,-5.6736,-5.6636,-5.6748,-5.6943,-5.699,-5.704,-5.7397,-5.7316,-5.7433,-5.7635,-5.777,-5.7812,-5.7849,-5.7976,-5.8023,-5.7461,-5.7461,-5.7462,0,-5.6344,-5.6534,-5.6476,-5.6628,-5.6686,-5.6567,-5.6746,-5.679,-5.6882,-5.6925,-5.6835,-5.7076,-5.7109,-5.7348,-5.7435,-5.7479,-5.7526,-5.7427,-5.7811,-5.7847,-5.7881,-5.8002,-5.805,-5.7475,-5.7474,-5.7472,-5.7471,0,-5.6751,-5.6885,-5.7021,-5.7111,-5.7185,-5.735,-5.7317,-5.7399,-5.735,-5.7344,-5.7539,-5.7573,-5.7682,-5.7735,-5.7689,-5.7969,-5.7917,-5.7821,-5.7659,-5.7947,-5.8059,-5.8105,-5.7495,-5.749,-5.7486,-5.7482,0,0,-5.7221,-5.7276,-5.7327,-5.7366,-5.7424,-5.7526,-5.7685,-5.779,-5.7862,-5.7929,-5.8061,-5.8228,-5.8138,-5.8195,-5.8153,-5.8272,-5.8552,-5.816,-5.816,-5.8231,-5.8861,-5.8934,-5.8988,-5.8498,-5.8507,-5.8513,-5.8856,0,-5.7559,-5.7833,-5.7786,-5.8052,-5.8175,-5.8063,-5.8202,-5.8252,-5.8251,-5.8355,-5.8353,-5.8473,-5.8346,-5.8379,-5.8491,-5.8494,-5.8678,-5.8469,-5.8621,-5.8627,-5.8609,-5.9047,-5.9124,-5.9445,-5.8899,-5.8907,-5.8912,0,-5.799,-5.8072,-5.8351,-5.8388,-5.8437,-5.8563,-5.8655,-5.8756,-5.8811,-5.8801,-5.8865,-5.8801,-5.896,-5.8797,-5.9016,-5.8875,-5.8934,-5.8945,-5.8957,-5.8969,-5.8787,-5.907,-5.9547,-5.9595,-5.8981,-5.8975,-5.897,0,-5.8304,-5.8484,-5.8674,-5.8711,-5.8759,-5.885,-5.8875,-5.892,-5.8986,-5.9067,-5.9109,-5.9208,-5.9263,-5.9341,-5.9306,-5.9191,-5.9532,-5.9366,-5.9529,-5.953,-5.9605,-5.9601,-6.0098,-5.9645,-5.9644,-5.9643,-5.9642,0,-5.8686,-5.8861,-5.8815,-5.8932,-5.9125,-5.9069,-5.9261,-5.9272,-5.9314,-5.9431,-5.9341,-5.9454,-5.94,-5.9509,-5.9483,-5.9668,-5.9694,-5.9691,-5.9682,-5.9699,-5.9699,-5.9736,-5.9713,-5.9656,-5.9653,-5.9651,-5.9649,0,-5.907,-5.9046,-5.9245,-5.9274,-5.9286,-5.9427,-5.9451,-5.9561,-5.9552,-5.9702,-5.9734,-5.9721,-5.9844,-5.9817,-5.9953,-5.9935,-6.0167,-6.0131,-6.0149,-6.014,-6.0304,-6.0289,-6.0842,-6.0911,-6.0414,-6.0419,-6.0423,0,-5.9315,-5.9447,-5.949,-5.9561,-5.9592,-5.9709,-5.9776,-5.9726,-5.9799,-5.9871,-5.9973,-6.0087,-6.0176,-6.0379,-6.0382,-6.0485,-6.045,-6.0637,-6.0465,-6.0478,-6.0453,-6.0445,-6.0458,-6.0671,-6.0677,-6.0681,-6.0685,0,-5.9753,-5.9734,-5.9833,-5.9929,-6.0011,-6.0084,-6.0148,-6.0212,-6.0168,-6.0255,-6.0379,-6.0448,-6.0586,-6.0701,-6.0797,-6.0822,-6.0748,-6.0739,-6.0782,-6.0801,-6.0805,-6.0805,-6.0241,-6.0727,-6.0722,-6.0719,-6.0717,-6.0716,-6.0074,-6.0185,-6.0233,-6.0346,-6.0389,-6.0452,-6.0555,-6.056,-6.0662,-6.0769,-6.0734,-6.0876,-6.0928,-6.1048,-6.1085,-6.1195,-6.1125,-6.1188,-6.1204,-6.122,-6.124,-6.0789,-6.1213,-6.1212,-6.121,-6.1209,-6.1209,0,-6.0506,-6.0531,-6.0636,-6.0728,-6.0818,-6.0738,-6.0805,-6.0886,-6.1011,-6.1065,-6.1154,-6.1298,-6.1409,-6.1421,-6.1526,-6.1613,-6.1581,-6.1642,-6.1635,-6.1642,-6.1297,-6.1249,-6.1666,-6.1666,-6.1666,-6.1666,-6.1666,-6.1666,-6.0741,-6.0926,-6.0913,-6.1118,-6.1141,-6.1279,-6.1324,-6.1382,-6.1424,-6.1587,-6.1679,-6.1686,-6.1723,-6.183,-6.1929,-6.193,-6.1973,-6.2047,-6.2035,-6.1712,-6.1666,-6.1623,-6.1577,-6.2057,-6.2058,-6.2371,-6.2374,-6.2376]},{"header":{"parameterUnit":"m.s-1","parameterCategory":1,"la1":30.2991,"la2":30.254,"lo1":-89.0895,"lo2":-89.0444,"dy":0.0017,"dx":0.0017,"nx":28,"ny":28,"refTime":"2023-11-01T09:00:00:Z","depth":0,"parameterNumber":3,"parameterNumberName":"V-component_of_WINDS"},"data":[0,0,0,0,0,0,0,0,0,0,0,0,0,0,0,0,0,0,0,0,0,0,0,0,0,0,0,0,0,0,0,0,0,0,0,0,0,0,0,0,0,0,0,0,0,0,0,0,0,0,0,0,0,0,0,0,0,0,-3.0872,-3.0871,0,-3.0864,-3.0864,-3.0864,-3.0851,-3.085,-3.085,-3.085,-3.0839,-3.0839,-3.0839,0,0,0,0,0,0,0,0,0,0,0,0,0,-3.0869,-3.087,-3.0872,-3.0871,-3.0871,-3.0864,-3.0864,-3.0864,-3.0851,-3.085,-3.085,-3.085,-3.0839,-3.0839,-3.0839,0,0,0,0,0,0,0,0,0,0,0,0,0,-3.0867,-3.087,-3.0872,-3.0864,-3.0863,-3.0864,-3.0864,-3.0864,-3.0851,-3.085,-3.085,-3.085,-3.0839,-3.0839,-3.0839,-3.0846,0,0,-3.0839,-3.0839,0,0,0,0,0,0,0,0,-3.0867,-3.0867,-3.0865,-3.0865,-3.0864,-3.0858,-3.0859,-3.0858,-3.0851,-3.0855,-3.085,-3.0849,-3.0846,-3.0845,-3.0844,-3.0845,-3.0845,-3.0839,-3.0839,-3.0839,-3.0839,0,0,0,0,0,0,0,-3.0867,-3.0867,-3.0868,-3.0865,-3.0864,-3.0859,-3.0858,-3.0859,-3.0853,-3.0855,-3.0854,-3.0853,-3.0845,-3.0844,-3.0844,-3.0845,-3.0839,-3.0839,-3.0839,-3.0839,-3.0847,-3.0847,0,0,0,0,0,0,-3.0869,-3.0867,-3.0869,-3.0868,-3.0865,-3.086,-3.0859,-3.086,-3.0853,-3.0851,-3.0854,-3.0853,-3.0845,-3.0844,-3.0844,-3.0848,-3.0839,-3.0839,-3.0839,-3.0846,-3.0847,-3.0847,0,0,0,0,0,0,-3.0869,-3.0869,-3.0869,-3.0868,-3.0867,-3.086,-3.0862,-3.086,-3.0859,-3.0852,-3.085,-3.0855,-3.0844,-3.0844,-3.0845,-3.0848,-3.0839,-3.0839,-3.0846,-3.0846,-3.0847,-3.086,0,0,0,0,0,0,-3.0869,-3.0869,-3.0874,-3.0868,-3.0867,-3.0872,-3.0862,-3.086,-3.086,-3.0858,-3.0852,-3.085,-3.0844,-3.0845,-3.0845,-3.0848,-3.0839,-3.0846,-3.0846,-3.0847,-3.0859,-3.0861,-3.0862,0,0,0,0,0,-3.0869,-3.0878,-3.0874,-3.0874,-3.0872,-3.0872,-3.0872,-3.0865,-3.086,-3.0863,-3.0857,-3.0851,-3.0848,-3.0845,-3.0845,-3.0848,-3.0846,-3.0846,-3.0847,-3.0858,-3.086,-3.0862,0,0,0,0,0,0,-3.0884,-3.0877,-3.0873,-3.088,-3.0877,-3.087,-3.0874,-3.0868,-3.0866,-3.0864,-3.0855,-3.0854,-3.0855,-3.0852,-3.0849,-3.0852,-3.0845,-3.0846,-3.0854,-3.0856,-3.0857,-3.0858,-3.0839,0,0,0,0,0,-3.0888,-3.089,-3.0883,-3.089,-3.0889,-3.0881,-3.0881,-3.0876,-3.0872,-3.0871,-3.0865,-3.0861,-3.0858,-3.0857,-3.0855,-3.0858,-3.0855,-3.086,-3.0861,-3.0862,-3.0863,-3.0861,-3.0862,-3.0849,-3.0849,-3.0849,0,0,-3.0897,-3.0893,-3.0895,-3.0893,-3.089,-3.089,-3.088,-3.0882,-3.0881,-3.087,-3.0871,-3.0866,-3.086,-3.0862,-3.0862,-3.0859,-3.0865,-3.0863,-3.0864,-3.0864,-3.0862,-3.0863,-3.0864,-3.0849,-3.0849,-3.0849,0,0,-3.0912,-3.091,-3.0915,-3.0911,-3.0907,-3.0901,-3.0902,-3.0895,-3.0892,-3.0892,-3.0883,-3.0881,-3.0878,-3.0873,-3.0871,-3.088,-3.0873,-3.0879,-3.0887,-3.0885,-3.0886,-3.0887,-3.0889,-3.089,-3.088,-3.088,-3.088,0,-3.0923,-3.0924,-3.0917,-3.0918,-3.0916,-3.0906,-3.0909,-3.0906,-3.09,-3.0898,-3.0894,-3.0888,-3.0884,-3.0882,-3.0884,-3.0883,-3.0882,-3.088,-3.0887,-3.0888,-3.0889,-3.089,-3.089,-3.0881,-3.0881,-3.088,-3.088,0,-3.0936,-3.0937,-3.0941,-3.0935,-3.0934,-3.0936,-3.0927,-3.0926,-3.092,-3.0914,-3.0912,-3.0906,-3.0901,-3.09,-3.0895,-3.0897,-3.0894,-3.0889,-3.0882,-3.0891,-3.0891,-3.0892,-3.0882,-3.0881,-3.0881,-3.0881,0,0,-3.0963,-3.0951,-3.0953,-3.0949,-3.0941,-3.0941,-3.0941,-3.0936,-3.0934,-3.0929,-3.0927,-3.0923,-3.0917,-3.0914,-3.0907,-3.0906,-3.0911,-3.0901,-3.09,-3.0902,-3.0911,-3.0914,-3.0915,-3.0906,-3.0907,-3.0907,-3.0911,0,-3.0975,-3.0976,-3.0968,-3.0969,-3.0968,-3.0957,-3.0956,-3.095,-3.0944,-3.0941,-3.0933,-3.093,-3.0923,-3.0921,-3.0919,-3.0911,-3.0913,-3.0911,-3.0903,-3.0903,-3.0904,-3.0916,-3.092,-3.0925,-3.0911,-3.0911,-3.0911,0,-3.0991,-3.0986,-3.0988,-3.0978,-3.0977,-3.0977,-3.097,-3.0968,-3.0959,-3.0955,-3.0949,-3.0941,-3.0938,-3.0932,-3.0926,-3.0924,-3.092,-3.0915,-3.0915,-3.0914,-3.0907,-3.0914,-3.0926,-3.0926,-3.0912,-3.0912,-3.0912,0,-3.1007,-3.1002,-3.1001,-3.0998,-3.0987,-3.0987,-3.0981,-3.0973,-3.097,-3.0963,-3.096,-3.0953,-3.0949,-3.0943,-3.0932,-3.0929,-3.0926,-3.092,-3.0921,-3.0921,-3.0921,-3.0921,-3.0932,-3.092,-3.092,-3.092,-3.092,0,-3.1021,-3.1022,-3.1008,-3.1008,-3.1007,-3.0997,-3.0996,-3.099,-3.0982,-3.0978,-3.0968,-3.0965,-3.0952,-3.0946,-3.0937,-3.0932,-3.0931,-3.0926,-3.0923,-3.0926,-3.0927,-3.0923,-3.0922,-3.092,-3.092,-3.092,-3.092,0,-3.1039,-3.103,-3.1029,-3.1017,-3.1014,-3.1014,-3.1003,-3.1001,-3.0994,-3.0989,-3.0988,-3.0975,-3.0968,-3.0956,-3.0946,-3.094,-3.0936,-3.0932,-3.0939,-3.0937,-3.0938,-3.0938,-3.0947,-3.0946,-3.0935,-3.0935,-3.0936,0,-3.1049,-3.1049,-3.1037,-3.1034,-3.1029,-3.1025,-3.1021,-3.101,-3.1006,-3.0995,-3.0994,-3.0985,-3.0978,-3.0967,-3.0956,-3.0947,-3.0943,-3.0946,-3.0941,-3.0943,-3.0941,-3.0941,-3.094,-3.0947,-3.0947,-3.0948,-3.0948,0,-3.1065,-3.106,-3.1055,-3.1048,-3.1043,-3.1037,-3.103,-3.1028,-3.1015,-3.101,-3.1003,-3.0997,-3.0986,-3.0977,-3.0966,-3.0959,-3.095,-3.0949,-3.0949,-3.0952,-3.0955,-3.0951,-3.0941,-3.0949,-3.0949,-3.0949,-3.0949,-3.0949,-3.1078,-3.1077,-3.1067,-3.1061,-3.1055,-3.1048,-3.1045,-3.1036,-3.103,-3.102,-3.1013,-3.1006,-3.0994,-3.0979,-3.0972,-3.0964,-3.0961,-3.0961,-3.096,-3.096,-3.0961,-3.0956,-3.0962,-3.0962,-3.0962,-3.0962,-3.0962,0,-3.1092,-3.1085,-3.108,-3.107,-3.1065,-3.1058,-3.1049,-3.1045,-3.1038,-3.1029,-3.1022,-3.1012,-3.1003,-3.099,-3.098,-3.0976,-3.0971,-3.0973,-3.0973,-3.0971,-3.0965,-3.0966,-3.0977,-3.0977,-3.0977,-3.0977,-3.0977,-3.0977,-3.1099,-3.1096,-3.1089,-3.1081,-3.1074,-3.1067,-3.1062,-3.1055,-3.1047,-3.1037,-3.1029,-3.1021,-3.101,-3.0998,-3.0988,-3.0985,-3.0981,-3.0983,-3.0978,-3.0973,-3.0972,-3.0971,-3.0971,-3.0983,-3.0983,-3.0985,-3.0985,-3.0985]}]]